This is the latest recevied weather packets stored in our database for station/object F4GQK-13. If no packets are shown the sender has not sent any weather packets the latest 10 day(s).
| Time | Temp. | Humidity | Pressure | Rain* | Wind** | Luminosity | Snow |
|---|---|---|---|---|---|---|---|
| 1776968106 | 18.33° C | 40% | 1023.8 hPa | 0 mm | - | 28 W/m² | - |
| 1776967806 | 18.89° C | 40% | 1023.9 hPa | 0 mm | - | 33 W/m² | - |
| 1776967505 | 18.89° C | 39% | 1024 hPa | 0 mm | - | 39 W/m² | - |
| 1776967205 | 19.44° C | 38% | 1023.8 hPa | 0 mm | - | 47 W/m² | - |
| 1776966905 | 19.44° C | 37% | 1023.9 hPa | 0 mm | - | 54 W/m² | - |
| 1776966605 | 19.44° C | 37% | 1023.8 hPa | 0 mm | - | 62 W/m² | - |
| 1776966305 | 19.44° C | 38% | 1024 hPa | 0 mm | - | 72 W/m² | - |
| 1776966004 | 19.44° C | 39% | 1023.9 hPa | 0 mm | - | 81 W/m² | - |
| 1776965705 | 20° C | 38% | 1023.8 hPa | 0 mm | - | 92 W/m² | - |
| 1776965405 | 20° C | 38% | 1023.7 hPa | 0 mm | - | 105 W/m² | - |
| 1776965105 | 20° C | 39% | 1024 hPa | 0 mm | - | 116 W/m² | - |
| 1776964805 | 20.56° C | 39% | 1023.9 hPa | 0 mm | - | 130 W/m² | - |
| 1776964505 | 20.56° C | 38% | 1023.9 hPa | 0 mm | - | 145 W/m² | - |
| 1776964204 | 20.56° C | 36% | 1023.8 hPa | 0 mm | - | 157 W/m² | - |
| 1776963905 | 20.56° C | 36% | 1024 hPa | 0 mm | - | 173 W/m² | - |
| 1776963606 | 20.56° C | 36% | 1024 hPa | 0 mm | - | 189 W/m² | - |
| 1776963305 | 20.56° C | 36% | 1024 hPa | 0 mm | - | 203 W/m² | - |
| 1776963005 | 21.11° C | 35% | 1024.2 hPa | 0 mm | - | 220 W/m² | - |
| 1776962705 | 21.11° C | 36% | 1024 hPa | 0 mm | - | 236 W/m² | - |
| 1776962406 | 21.11° C | 37% | 1024 hPa | 0 mm | - | 251 W/m² | - |
| 1776962105 | 21.11° C | 35% | 1024 hPa | 0 mm | - | 264 W/m² | - |
| 1776961805 | 21.11° C | 35% | 1024 hPa | 0 mm | - | 281 W/m² | - |
| 1776961505 | 21.11° C | 37% | 1024.1 hPa | 0 mm | - | 295 W/m² | - |
| 1776961205 | 21.67° C | 34% | 1024.3 hPa | 0 mm | - | 310 W/m² | - |
| 1776960905 | 21.11° C | 34% | 1024.2 hPa | 0 mm | - | 326 W/m² | - |
* Rain latest hour (hover to see other rain measurements)
** Current wind speed in m/s (hover to see current wind gust speed)